Погода в Меденичах

Украина / Львовская область     49°25′36″N   23°44′45″E
темп.,
°C
ветер,
м/с
пор.,
м/с
влажн.,
%
обл.,
%
осадки,
мм/ч
давл.,
гПа
погр.,
м
13 июня, вс
вс1300:00+15зсз3998100 2.1 1010320
03:00+14сз91494100 19.4 1009827
06:00+12сз81492100 2.1 1010794
09:00+12сз8128710 2.3 10131083
12:00+14сз9116872 0.4 10141564
15:00+15сз8116923 1.8 10151514
18:00+13сз91489100 1.6 10161165
21:00+11зсз81494100 3.9 1016804
14 июня, пн
пн1400:00+12сз81493100 2.4 1017864
03:00+11сз81496100 5.1 1017655
06:00+10сз71396100 0.2 1018614
09:00+11сз7118974 0.2 1019748
12:00+10сз51092100 0.6 1020754
15:00+10зсз369197 1.1 1020315
18:00+12зсз3690100 0.1 1019218
21:00+12зсз3789100 0.1 1019191
15 июня, вт
вт1500:00+12сз3489100 0.0 1019113
03:00+11сз349197 0.0 102081
06:00+10сз239448 0.0 102046
09:00+14сз33839 0.0 1020329
12:00+18ссз2374100 0.1 10191067
15:00+19ссз4571100 0.3 1018989
18:00+20сз3572100 0.3 10171002
21:00+16с228593 0.4 101717
16 июня, ср
ср1600:00+13сз1184100 0.0 101811
03:00+11зсз229066 0.0 101916
06:00+11зсз229395 0.0 101940
09:00+16сз338233 0.0 1019357
12:00+18ссз447933 0.1 1019682
15:00+20ссв447760 1.7 1018769
18:00+20св458020 0.8 1019721
21:00+17св338754 1.3 101950
17 июня, чт
чт1700:00+13св338641 0.0 102151
03:00+12св228523 0.0 102114
06:00+11ссв11891 0.0 102111
09:00+16в22760 0.0 1021322
12:00+20вюв346612 0.0 10201235
15:00+23в34571 0.1 10191816
18:00+22всв45684 0.0 10191414
21:00+17всв34840 0.0 101952